Back to catalog

COSMOS 1194

AliveMilitaryLEO
NORAD 11877·PAYLOAD·🇷🇺 Russia

Launched Jul 9, 1980 from Plesetsk Cosmodrome

Loading…

Next Passes (next 24 hours)

TLE

FreshSource: Space-Track

Epoch: Sep 14, 2026, 11:52 UTC

1 11877U 80058C   26257.49455060 -.00000022  00000-0 -37676-4 0  9999
2 11877  74.0152  81.6568 0027155 205.9206 154.0488 12.52802759112132

Track COSMOS 1194 in real time with AllMySat

Download on the App Store